Location: Aix-en-Ergny
(50.5839°N, 1.9996°E)
Time: 05:42:48
(UTC+00:00)

Cosmos 841 Rocket - Pass Details

Date: 23 October 2019
Orbit: 746 x 773 km, 74.0° (Epoch: 12 November)

Event Time Altitude Azimuth Distance (km) Brightness Sun altitude
Rises 05:21:30 0° 334° (NNW) 3,261 6.5 -11.1°
Reaches altitude 10° 05:23:54 10° 333° (NNW) 2,329 5.7 -10.7°
Maximum altitude 05:29:11 75° 249° (WSW) 802 3.5 -9.9°
Drops below altitude 10° 05:34:24 10° 165° (SSE) 2,301 6.3 -9.0°
Sets 05:36:45 0° 164° (SSE) 3,220 7.1 -8.7°
